Overview Statistics Trail Chart Weather Telemetry Raw packets
 

This is the latest recevied weather packets stored in our database for station/object IW1RID-3. If no packets are shown the sender has not sent any weather packets the latest 10 day(s).

<< 1 2 3 4 5 6 7 >>
Time Temp. Humidity Pressure Rain* Wind** Luminosity Snow
1788574958 21.11° C 87% 1075.2 hPa - - - -
1788573753 21.11° C 86% 1075.1 hPa - - - -
1788572549 21.11° C 86% 1075.3 hPa - - - -
1788571344 21.67° C 84% 1075.5 hPa - - - -
1788570140 21.67° C 85% 1075.5 hPa - - - -
1788568936 22.22° C 81% 1075.5 hPa - - - -
1788567730 21.67° C 83% 1075.7 hPa - - - -
1788566526 21.67° C 83% 1076 hPa - - - -
1788565321 22.22° C 79% 1076 hPa - - - -
1788564117 22.78° C 79% 1075.9 hPa - - - -
1788562912 22.22° C 82% 1076.1 hPa - - - -
1788561708 22.78° C 80% 1076.2 hPa - - - -
1788560503 22.22° C 82% 1076.2 hPa - - - -
1788559298 22.78° C 82% 1076 hPa - - - -
1788558094 22.78° C 82% 1076 hPa - - - -
1788556889 23.33° C 80% 1076.2 hPa - - - -
1788555685 23.33° C 80% 1076.1 hPa - - - -
1788554480 23.33° C 82% 1076.3 hPa - - - -
1788553276 23.89° C 80% 1076.4 hPa - - - -
1788552071 24.44° C 79% 1076.5 hPa - - - -
1788550866 25° C 78% 1076.4 hPa - - - -
1788549662 25° C 77% 1076.3 hPa - - - -
1788548457 25.56° C 76% 1076.2 hPa - - - -
1788547253 25.56° C 74% 1076 hPa - - - -
1788546048 26.67° C 71% 1075.8 hPa - - - -

* Rain since midnight (hover to see other rain measurements)
** Current wind speed in m/s (hover to see current wind gust speed)